Location: Fredericksburg
(30.2750°N, 98.8720°W)
Time: 17:13:23
(UTC-05:00)

ISS - All Passes

Search period start: 30 August 2014 00:00
Search period end: 09 September 2014 00:00
Orbit: 414 x 419 km, 51.6° (Epoch: 30 August)

Date Brightness Start Highest point End Pass type
(mag) Time Alt. Az. Time Alt. Az. Time Alt. Az.
30 Aug - 11:07:46 10° WSW 11:11:00 50° NW 11:14:14 10° NNE daylight
30 Aug - 17:42:20 10° N 17:43:53 13° NE 17:45:26 10° ENE daylight
30 Aug - 19:17:35 10° NW 19:20:51 54° SW 19:24:06 10° SSE daylight
31 Aug - 10:19:12 10° SW 10:22:30 76° SE 10:25:49 10° NE daylight
31 Aug - 11:59:03 10° NW 11:59:35 10° NNW 12:00:06 10° NNW daylight
31 Aug - 18:29:03 10° NW 18:32:22 69° NE 18:35:40 10° SE daylight
01 Sep - 09:31:01 10° SSW 09:34:03 34° SE 09:37:05 10° ENE daylight
01 Sep - 11:08:36 10° W 11:10:50 17° NW 11:13:05 10° N daylight
01 Sep - 17:40:44 10° NNW 17:43:48 33° NE 17:46:51 10° ESE daylight
01 Sep - 19:18:23 10° W 19:20:17 14° SW 19:22:10 10° SSW daylight
02 Sep - 08:43:22 10° S 08:45:37 17° SE 08:47:52 10° E daylight
02 Sep - 10:19:13 10° WSW 10:22:09 29° NW 10:25:06 10° NNE daylight
02 Sep - 16:52:39 10° N 16:55:08 19° NE 16:57:36 10° E daylight
02 Sep - 18:28:56 10° WNW 18:31:51 28° SW 18:34:45 10° S daylight
03 Sep - 09:30:16 10° SW 09:33:31 56° NW 09:36:48 10° NE daylight
03 Sep - 16:05:05 10° N 16:06:21 12° NNE 16:07:37 10° NE daylight
03 Sep - 17:40:04 10° NW 17:43:21 62° SW 17:46:37 10° SSE daylight
04 Sep - 08:41:39 10° SW 08:44:56 66° SE 08:48:13 10° NE daylight
04 Sep - 10:20:54 10° NW 10:21:57 11° NNW 10:23:00 10° NNW daylight
04 Sep - 16:51:28 10° NW 16:54:45 60° NE 16:58:02 10° SE daylight
05 Sep - 07:53:25 10° SSW 07:56:22 30° SE 07:59:20 10° ENE daylight
05 Sep - 09:30:44 10° W 09:33:07 18° NW 09:35:31 10° N daylight
05 Sep - 16:03:05 10° NNW 16:06:04 30° NE 16:09:02 10° ESE daylight
05 Sep - 17:40:26 10° W 17:42:34 16° SW 17:44:42 10° SSW daylight
06 Sep - 07:05:49 10° SSE 07:07:51 15° SE 07:09:53 10° E daylight
06 Sep - 08:41:20 10° WSW 08:44:20 32° NW 08:47:21 10° NNE daylight
06 Sep - 15:14:57 10° N 15:17:16 18° NE 15:19:35 10° E daylight
06 Sep - 16:51:02 10° WNW 16:54:02 32° SW 16:57:02 10° SSE daylight
07 Sep - 07:52:19 10° SW 07:55:36 64° NW 07:58:54 10° NE daylight
07 Sep - 14:27:32 10° NNE 14:28:22 11° NNE 14:29:12 10° NE daylight
07 Sep - 16:02:06 10° NW 16:05:25 71° SW 16:08:42 10° SE daylight
08 Sep - 07:03:40 10° SSW 07:06:55 57° SE 07:10:11 10° NE daylight
08 Sep - 08:42:28 10° WNW 08:43:53 12° NW 08:45:18 10° N daylight
08 Sep - 15:13:26 10° NW 15:16:42 53° NE 15:19:56 10° ESE daylight
